Location: Essen
(51.4609°N, 7.0127°E)
Time: 04:54:18
(UTC+01:00)

ISS - Pass Details

Date: 07 January 2018
Orbit: 402 x 407 km, 51.6° (Epoch: 18 January)

Event Time Altitude Azimuth Distance (km) Brightness Sun altitude
Exits shadow 07:28:57 14° 278° (W) 1,258 -2.0 -9.8°
Maximum altitude 07:31:42 67° 197° (SSW) 446 -3.6 -9.5°
Drops below altitude 10° 07:34:58 10° 114° (ESE) 1,468 0.7 -9.0°
Sets 07:37:03 0° 112° (ESE) 2,328 2.5 -8.7°
